This demonstration page uses our WeatherBlox Daily Observations layout. Learn more.

Left ArrowRight Arrow

Hourly Observations for December 4, 2016

Temp ( °F °C ) Dew Point ( °F °C ) Humidity (%) Winds ( mph kmh ) Pressure ( in mb ) Visibility ( mi km ) Precip ( " mm )
12:53 am 00:53 Clear 29 -1.7 21 -6.1 72 72 SW 9 15 29.88 1012 10 16 0.00 0.00
1:53 am 01:53 Clear 31 -0.6 21 -6.1 67 67 SW 13 20 29.86 1011 10 16 0.00 0.00
2:53 am 02:53 Cloudy 34 1.1 22 -5.6 61 61 SW 13 20 29.84 1010 10 16 0.00 0.00
3:53 am 03:53 Cloudy 33 0.6 21 -6.1 61 61 SSW 13 20 29.81 1010 10 16 0.00 0.00
4:53 am 04:53 Clear 32 0 22 -5.6 66 66 SW 13 20 29.79 1009 10 16 0.00 0.00
5:53 am 05:53 Clear 31 -0.6 22 -5.6 69 69 SW 12 19 29.78 1008 10 16 0.00 0.00
6:53 am 06:53 Mostly Cloudy 34 1.1 23 -5 64 64 SSW 17 28 29.75 1008 10 16 0.00 0.00
7:53 am 07:53 Cloudy 35 1.7 24 -4.4 64 64 SW 13 20 29.72 1006 10 16 0.00 0.00
8:53 am 08:53 Cloudy 36 2.2 23 -5 59 59 SW 10 17 29.70 1006 10 16 0.00 0.00
9:53 am 09:53 Cloudy 39 3.9 24 -4.4 55 55 SSW 14 22 29.66 1004 10 16 0.00 0.00
10:53 am 10:53 Cloudy 39 3.9 24 -4.4 55 55 SW 20 31 29.63 1004 10 16 0.00 0.00
11:53 am 11:53 Cloudy 39 3.9 25 -3.9 57 57 WNW 7 11 29.62 1003 10 16 0.00 0.00
12:53 pm 12:53 Cloudy 40 4.4 26 -3.3 58 58 SW 8 13 29.57 1002 10 16 0.00 0.00
1:53 pm 13:53 Cloudy 40 4.4 25 -3.9 55 55 SW 13 20 29.53 1000 10 16 0.00 0.00
2:53 pm 14:53 Cloudy 37 3 28 -2 70 70 SW 8 13 29.53 1000 10 16 0.00 0.00
3:53 pm 15:53 Cloudy 36 2.2 30 -1.1 79 79 SW 15 24 29.55 1001 10 16 0.00 0.00
4:53 pm 16:53 Cloudy 32 0 32 0 100 100 WSW 10 17 29.57 1002 10 16 0.00 0.03
5:53 pm 17:53 Cloudy 33 0.6 32 0 96 96 SSW 12 19 29.57 1001 10 16 0.00 0.00
6:42 pm 18:42 Mostly Cloudy 34 1 28 -2 81 81 WNW 18 30 29.62 1003 10 16 0.00 0.00
6:53 pm 18:53 Mostly Cloudy 31 -0.6 27 -2.8 85 85 WNW 20 31 29.60 1003 10 16 0.00 0.00
7:53 pm 19:53 Mostly Cloudy 29 -1.7 25 -3.9 85 85 W 14 22 29.63 1003 10 16 0.00 0.00
8:20 pm 20:20 Mostly Cloudy 28 -2 25 -4 86 86 WNW 14 22 29.68 1005 10 16 0.00 0.00
8:31 pm 20:31 Cloudy 28 -2.2 24 -4.4 85 85 N 17 28 29.71 1006 10 16 0.00 0.00
8:42 pm 20:42 Cloudy 27 -3 21 -6 80 80 N 15 24 29.74 1007 10 16 0.00 0.00
8:51 pm 20:51 Cloudy 27 -3 21 -6 80 80 N 13 20 29.77 1008 10 16 0.00 0.00
8:53 pm 20:53 Cloudy 27 -2.8 22 -5.6 81 81 N 13 20 29.68 1005 10 16 0.00 0.00
9:41 pm 21:41 Cloudy with Light Snow 25 -3.9 22 -5.6 88 88 NNW 13 20 29.80 1009 2 3 0.00 0.03
9:53 pm 21:53 Cloudy with Light Snow 25 -3.9 22 -5.6 88 88 NNW 15 24 29.72 1007 3 4 0.00 0.03
10:07 pm 22:07 Cloudy with Light Snow 25 -4 21 -6 86 86 NNW 14 22 29.80 1009 2 2 0.00 0.00
10:22 pm 22:22 Cloudy with Light Snow 25 -4 21 -6 86 86 NNW 13 20 29.83 1010 2 3 0.00 0.00
10:37 pm 22:37 Cloudy with Light Snow 25 -3.9 22 -5.6 88 88 NW 13 20 29.83 1010 4 6 0.00 0.03
10:53 pm 22:53 Cloudy with Light Snow 24 -4.4 20 -6.7 84 84 NW 14 22 29.76 1008 9 14 0.00 0.03
11:47 pm 23:47 Cloudy with Light Snow 23 -5 19 -7 86 86 NW 13 20 29.88 1012 2 3 0.00 0.03
11:53 pm 23:53 Cloudy with Light Snow 23 -5 20 -6.7 88 88 NW 12 19 29.80 1009 2 2 0.00 0.03

Powered by AerisWeather